This is the latest recevied weather packets stored in our database for station/object W8UFO-13. If no packets are shown the sender has not sent any weather packets the latest 10 day(s).
| Time | Temp. | Humidity | Pressure | Rain* | Wind** | Luminosity | Snow |
|---|---|---|---|---|---|---|---|
| 1777984457 | 15° C | 74% | 1016.4 hPa | 0 mm | - | - | - |
| 1777984156 | 14.44° C | 79% | 1016.3 hPa | 0 mm | - | - | - |
| 1777983857 | 14.44° C | 80% | 1016.2 hPa | 0 mm | - | - | - |
| 1777983557 | 13.89° C | 82% | 1016.1 hPa | 0 mm | - | - | - |
| 1777983256 | 13.89° C | 85% | 1016.2 hPa | 0 mm | - | - | - |
| 1777982956 | 13.33° C | 86% | 1016.3 hPa | 0 mm | - | - | - |
| 1777982656 | 12.78° C | 87% | 1016.2 hPa | 0 mm | - | - | - |
| 1777982356 | 12.22° C | 86% | 1016.2 hPa | 0 mm | - | - | - |
| 1777982057 | 12.22° C | 86% | 1016.1 hPa | 0 mm | - | - | - |
| 1777981757 | 11.67° C | 86% | 1016.1 hPa | 0 mm | - | - | - |
| 1777981456 | 11.67° C | 85% | 1016.1 hPa | 0 mm | - | - | - |
| 1777981156 | 11.67° C | 85% | 1016 hPa | 0 mm | - | - | - |
| 1777980857 | 11.67° C | 85% | 1015.9 hPa | 0 mm | - | - | - |
| 1777980557 | 11.67° C | 85% | 1015.7 hPa | 0 mm | - | - | - |
| 1777980256 | 11.67° C | 85% | 1016 hPa | 0 mm | - | - | - |
| 1777979956 | 11.67° C | 85% | 1015.8 hPa | 0 mm | - | - | - |
| 1777979656 | 11.67° C | 85% | 1015.6 hPa | 0 mm | - | - | - |
| 1777979356 | 11.67° C | 85% | 1015.6 hPa | 0 mm | - | - | - |
| 1777979056 | 11.67° C | 85% | 1015.4 hPa | 0 mm | - | - | - |
| 1777978756 | 11.11° C | 85% | 1015.1 hPa | 0 mm | - | - | - |
| 1777978456 | 11.11° C | 85% | 1015.1 hPa | 0 mm | - | - | - |
| 1777978157 | 11.11° C | 84% | 1015.1 hPa | 0 mm | - | - | - |
| 1777977857 | 11.11° C | 84% | 1015.1 hPa | 0 mm | - | - | - |
| 1777977556 | 11.11° C | 84% | 1015.3 hPa | 0 mm | - | - | - |
| 1777977257 | 11.67° C | 83% | 1015.3 hPa | 0 mm | - | - | - |
* Rain latest hour (hover to see other rain measurements)
** Current wind speed in m/s (hover to see current wind gust speed)